Weather History for KPGD - December, 2012

Change the Weather History Date:

Friday, December 7, 2012

  Actual Average (KFMY) Record (KFMY)
Temperature  
Mean Temperature 70 °F 68 °F  
Max Temperature 82 °F 78 °F 90 °F (1978)
Min Temperature 59 °F 58 °F 36 °F (1937)
Degree Days  
Heating Degree Days 0 2  
Month to date heating degree days 9  
Since 1 July heating degree days 27  
Cooling Degree Days 6 5  
Month to date cooling degree days 35  
Year to date cooling degree days 3898  
Growing Degree Days 20 (Base 50)    
Moisture  
Dew Point 63 °F    
Average Humidity 84    
Maximum Humidity 100    
Minimum Humidity 54    
Precipitation  
Precipitation 0.01 in 0.05 in 2.43 in (1979)
Month to date precipitation 0.32  
Year to date precipitation 54.54  
Sea Level Pressure  
Sea Level Pressure 29.98 in    
Wind  
Wind Speed 4 mph (NE)    
Max Wind Speed 9 mph    
Max Gust Speed -    
Visibility 6 miles    
Events Fog    
T = Trace of Precipitation, MM = Missing Value Source: NWS Daily Summary

Daily Weather History Graph

Daily Weather History Graph

Search for Another Location

Airport or City:

Trip Planner

Search our weather history database for the weather conditions in past years. The results will help you decide how hot, cold, wet, or windy it might be!

Date:

Astronomy

Dec. 07, 2012 Rise Set
Actual Time 7:04 AM EST 5:34 PM EST
Civil Twilight 6:39 AM EST 6:00 PM EST
Nautical Twilight 6:10 AM EST 6:29 PM EST
Astronomical Twilight 5:41 AM EST 6:57 PM EST
Moon 12:52 AM EST (12/7) 1:04 PM EST (12/7)
Length of Visible Light 11h 21m
Length of Day
10h 30m
Last Quarter, 39% of the Moon is Illuminated
Dec 7
Last Quarter
Dec 13
New
Dec 20
First Quarter
Dec 28
Full
Jan 4
Last Quarter

Hourly Weather History & Observations

Time (EST) Temp. Heat Index Dew Point Humidity Pressure Visibility Wind Dir Wind Speed Gust Speed Precip Events Conditions
12:53 AM 63.0 °F - 62.1 °F 97% 29.98 in 10.0 mi ENE 6.9 mph - N/A   Clear
1:53 AM 63.0 °F - 62.1 °F 97% 29.97 in 10.0 mi ENE 5.8 mph - N/A   Clear
2:45 AM 62.6 °F - 60.8 °F 94% 29.96 in 1.8 mi Calm Calm - N/A   Clear
2:53 AM 62.1 °F - 61.0 °F 96% 29.96 in 1.2 mi NE 3.5 mph - N/A   Scattered Clouds
3:03 AM 60.8 °F - 60.8 °F 100% 29.96 in 1.0 mi NE 4.6 mph - N/A   Mist
3:18 AM 62.6 °F - 60.8 °F 94% 29.96 in 0.5 mi NE 4.6 mph - N/A Fog Fog
3:53 AM 61.0 °F - 60.1 °F 97% 29.96 in 0.5 mi NNE 4.6 mph - N/A Fog Fog
4:48 AM 62.6 °F - 60.8 °F 94% 29.96 in 1.0 mi Calm Calm - N/A   Mist
4:53 AM 61.0 °F - 61.0 °F 100% 29.96 in 0.8 mi Calm Calm - N/A   Mist
5:53 AM 59.0 °F - 57.9 °F 96% 29.97 in 0.5 mi Calm Calm - N/A Fog Fog
6:53 AM 59.0 °F - 59.0 °F 100% 29.98 in 0.5 mi Calm Calm - 0.01 in Fog Fog
7:53 AM 61.0 °F - 60.1 °F 97% 30.00 in 0.2 mi ENE 5.8 mph - N/A Fog Fog
8:37 AM 62.6 °F - 62.6 °F 100% 30.01 in 2.0 mi ENE 4.6 mph - N/A   Overcast
8:53 AM 64.0 °F - 64.0 °F 100% 30.02 in 1.5 mi ENE 5.8 mph - N/A   Overcast
9:32 AM 66.2 °F - 64.4 °F 94% 30.03 in 2.5 mi East 8.1 mph - N/A   Scattered Clouds
9:53 AM 70.0 °F - 64.9 °F 84% 30.03 in 2.5 mi ENE 6.9 mph - N/A   Haze
10:00 AM 71.6 °F - 64.4 °F 78% 30.03 in 10.0 mi ENE 4.6 mph - N/A   Partly Cloudy
10:53 AM 77.0 °F - 64.9 °F 66% 30.02 in 10.0 mi ENE 6.9 mph - N/A   Clear
11:53 AM 78.1 °F - 64.9 °F 64% 30.00 in 10.0 mi Calm Calm - N/A   Scattered Clouds
12:53 PM 78.1 °F - 64.0 °F 62% 29.97 in 10.0 mi Variable 5.8 mph - N/A   Scattered Clouds
1:53 PM 82.0 °F 83.4 °F 64.0 °F 54% 29.94 in 10.0 mi Calm Calm - N/A   Scattered Clouds
2:53 PM 80.1 °F 81.2 °F 62.1 °F 54% 29.93 in 10.0 mi Calm Calm - N/A   Partly Cloudy
3:53 PM 80.1 °F 81.5 °F 63.0 °F 56% 29.93 in 10.0 mi NNE 5.8 mph - N/A   Mostly Cloudy
4:53 PM 79.0 °F - 62.1 °F 56% 29.94 in 10.0 mi Calm Calm - N/A   Scattered Clouds
5:53 PM 75.0 °F - 64.9 °F 71% 29.95 in 10.0 mi West 9.2 mph - N/A   Mostly Cloudy
6:53 PM 71.1 °F - 64.0 °F 78% 29.97 in 10.0 mi WNW 4.6 mph - N/A   Clear
8:53 PM 70.0 °F - 64.9 °F 84% 30.00 in 10.0 mi Calm Calm - N/A   Overcast
9:53 PM 68.0 °F - 64.0 °F 87% 30.00 in 10.0 mi Calm Calm - N/A   Partly Cloudy
10:53 PM 68.0 °F - 64.9 °F 90% 30.01 in 10.0 mi ENE 4.6 mph - N/A   Overcast
11:53 PM 68.0 °F - 66.0 °F 93% 29.99 in 10.0 mi Calm Calm - 0.00 in   Overcast